Terminal Aerodrome Forecast
Issued by NWS

Home | Current Version | Previous Version | Text Only | Print | Product List | Glossary On
Versions: 1 2 3 4 5 6 7 8 9 10 11 12 13 14 15 16 17 18 19 20
000
FTUS43 KSGF 281100
TAFJLN
TAF
KJLN 281120Z 2812/2912 17012KT P6SM SKC WS015/22035KT
     FM281430 19020G30KT P6SM SCT300 WS020/21045KT
     FM290100 21012G17KT P6SM SCT250 WS020/22045KT
     FM290400 24012KT P6SM SCT250=

USA.gov is the U.S. government's official web portal to all federal, state and local government web resources and services.